Lander, WY

6:54 AM MST on December 11, 2016 (GMT -0700)
Hunt

Weather History for KLND - April, 2014

Change the Weather History Date:

Thursday, April 3, 2014

  Actual Average Record
Temperature  
Mean Temperature 35 °F 40 °F  
Max Temperature 45 °F 53 °F 73 °F (1992)
Min Temperature 25 °F 28 °F -7 °F (1945)
Degree Days  
Heating Degree Days 30 24  
Month to date heating degree days 85 74  
Since 1 July heating degree days 6716 6693  
Cooling Degree Days 0 0  
Month to date cooling degree days 0 0  
Year to date cooling degree days 0 0  
Moisture  
Dew Point 20 °F    
Average Humidity 60    
Maximum Humidity 78    
Minimum Humidity 41    
Precipitation  
Precipitation 0.00 in 0.05 in 0.80 in (1983)
Month to date precipitation T 0.15  
Year to date precipitation 1.98 2.30  
Snow  
Snow 0.00 in 0.50 in - ()
Month to date snowfall 0.0 1.7  
Since 1 July snowfall 69.2 71.4  
Snow Depth 0.00 in    
Sea Level Pressure  
Sea Level Pressure 29.99 in    
Wind  
Wind Speed 7 mph (West)    
Max Wind Speed 16 mph    
Max Gust Speed 21 mph    
Visibility 10 miles    
Events      
T = Trace of Precipitation, MM = Missing Value Source: NWS Daily Summary

Daily Weather History Graph

Daily Weather History Graph

Search for Another Location

Airport or City:

Trip Planner

Search our weather history database for the weather conditions in past years. The results will help you decide how hot, cold, wet, or windy it might be!

Date:

Astronomy

Apr. 03, 2014 Rise Set
Actual Time 6:53 AM MDT 7:43 PM MDT
Civil Twilight 6:24 AM MDT 8:12 PM MDT
Nautical Twilight 5:50 AM MDT 8:46 PM MDT
Astronomical Twilight 5:15 AM MDT 9:21 PM MDT
Moon 9:20 AM MDT (4/3) No Moon Set
Length of Visible Light 13h 47m
Length of Day
12h 50m
Waxing Crescent, 18% of the Moon is Illuminated
Apr 3
Waxing Crescent
Apr 7
First Quarter
Apr 15
Full
Apr 22
Last Quarter
Apr 29
New

Hourly Weather History & Observations

Time (MDT) Temp. Windchill Dew Point Humidity Pressure Visibility Wind Dir Wind Speed Gust Speed Precip Events Conditions
12:53 AM 28.9 °F 23.9 °F 23.0 °F 78% 29.87 in 10.0 mi North 4.6 mph - N/A   Clear
1:53 AM 28.0 °F 21.7 °F 23.0 °F 81% 29.89 in 10.0 mi NW 5.8 mph - N/A   Scattered Clouds
2:53 AM 28.0 °F 21.7 °F 21.0 °F 75% 29.90 in 10.0 mi NNW 5.8 mph - N/A   Mostly Cloudy
3:53 AM 26.1 °F 18.4 °F 19.9 °F 78% 29.91 in 10.0 mi SSW 6.9 mph - N/A   Clear
4:53 AM 28.0 °F 17.0 °F 14.0 °F 56% 29.91 in 10.0 mi SW 13.8 mph - N/A   Clear
5:53 AM 28.9 °F 20.4 °F 12.9 °F 51% 29.92 in 10.0 mi West 9.2 mph - N/A   Mostly Cloudy
6:53 AM 25.0 °F - 18.0 °F 75% 29.97 in 10.0 mi Calm Calm - N/A   Overcast
7:53 AM 28.0 °F - 18.0 °F 66% 30.01 in 10.0 mi Calm Calm - N/A   Overcast
8:53 AM 32.0 °F - 18.0 °F 56% 30.03 in 10.0 mi Calm Calm - N/A   Overcast
9:53 AM 35.1 °F 30.1 °F 19.0 °F 52% 30.03 in 10.0 mi North 5.8 mph - N/A   Overcast
10:53 AM 37.0 °F 32.4 °F 19.9 °F 50% 30.03 in 10.0 mi NNE 5.8 mph - N/A   Scattered Clouds
11:53 AM 41.0 °F - 21.9 °F 47% 30.01 in 10.0 mi North - - N/A   Scattered Clouds
12:53 PM 39.9 °F 34.5 °F 21.0 °F 47% 30.02 in 10.0 mi North 8.1 mph - N/A   Overcast
1:53 PM 41.0 °F 35.2 °F 21.9 °F 47% 30.02 in 10.0 mi SE 9.2 mph 17.3 mph N/A   Overcast
2:53 PM 44.1 °F 37.4 °F 23.0 °F 43% 30.01 in 10.0 mi South 13.8 mph - N/A   Overcast
3:53 PM 43.0 °F 37.2 °F 23.0 °F 45% 30.01 in 10.0 mi South 10.4 mph - N/A   Overcast
4:53 PM 39.9 °F 34.5 °F 24.1 °F 53% 30.03 in 10.0 mi SSW 8.1 mph - N/A   Clear
5:53 PM 42.1 °F 39.2 °F 23.0 °F 47% 30.01 in 10.0 mi Variable 4.6 mph - N/A   Overcast
6:53 PM 39.0 °F 35.7 °F 23.0 °F 53% 30.05 in 10.0 mi SW 4.6 mph - N/A   Clear
7:53 PM 37.0 °F 32.4 °F 23.0 °F 57% 30.06 in 10.0 mi North 5.8 mph - N/A   Mostly Cloudy
9:53 PM 33.1 °F 24.4 °F 21.9 °F 64% 30.07 in 10.0 mi WSW 11.5 mph - N/A   Clear
10:53 PM 32.0 °F 23.0 °F 19.0 °F 59% 30.06 in 10.0 mi WSW 11.5 mph - N/A   Clear
11:53 PM 32.0 °F 23.6 °F 15.1 °F 50% 30.05 in 10.0 mi SW 10.4 mph - N/A   Clear